Grand Junction, CO

6:32 PM MDT on September 21, 2019 (GMT -0600)
Walker

Weather History for KGJT - April, 2019

Change the Weather History Date:

Tuesday, April 9, 2019

  Actual Average Record
Temperature  
Mean Temperature 64 °F 50 °F  
Max Temperature 77 °F 63 °F 83 °F (1977)
Min Temperature 51 °F 36 °F 21 °F (2013)
Degree Days  
Heating Degree Days 1 15  
Month to date heating degree days 89 147  
Since 1 July heating degree days 5197 5179  
Cooling Degree Days 0 0  
Month to date cooling degree days 0 0  
Year to date cooling degree days 0 0  
Growing Degree Days 14 (Base 50)    
Moisture  
Dew Point 25 °F    
Average Humidity 27    
Maximum Humidity 41    
Minimum Humidity 12    
Precipitation  
Precipitation 0.00 in 0.03 in 0.65 in (1994)
Month to date precipitation 0.01 0.29  
Year to date precipitation 3.74 2.33  
Snow  
Snow 0.00 in 0.10 in 0.20 in (1984)
Month to date snowfall 0.0 0.5  
Since 1 July snowfall 17.4 18.6  
Snow Depth 0.00 in    
Sea Level Pressure  
Sea Level Pressure 29.63 in    
Wind  
Wind Speed 15 mph (SSE)    
Max Wind Speed 29 mph    
Max Gust Speed 43 mph    
Visibility 10 miles    
Events      
T = Trace of Precipitation, MM = Missing Value Source: NWS Daily Summary

Daily Weather History Graph

Daily Weather History Graph

Search for Another Location

Airport or City:

Astronomy

Apr. 09, 2019 Rise Set
Actual Time 6:46 AM MDT 7:45 PM MDT
Civil Twilight 6:19 AM MDT 8:12 PM MDT
Nautical Twilight 5:46 AM MDT 8:45 PM MDT
Astronomical Twilight 5:13 AM MDT 9:19 PM MDT
Moon 9:36 AM MDT (4/9) No Moon Set
Length of Visible Light 13h 53m
Length of Day
12h 58m
Waxing Crescent, 19% of the Moon is Illuminated
Apr 9
Waxing Crescent
Apr 12
First Quarter
Apr 19
Full
Apr 26
Last Quarter
May 4
New

Hourly Weather History & Observations

Time (MDT) Temp. Dew Point Humidity Pressure Visibility Wind Dir Wind Speed Gust Speed Precip Events Conditions
12:53 AM 55.9 °F 28.9 °F 36% 29.92 in 10.0 mi ESE 13.8 mph - N/A   Clear
1:53 AM 54.0 °F 30.0 °F 40% 29.89 in 10.0 mi ESE 15.0 mph - N/A   Clear
2:53 AM 54.0 °F 28.0 °F 37% 29.86 in 10.0 mi ESE 20.7 mph - N/A   Clear
3:53 AM 53.1 °F 28.9 °F 40% 29.85 in 10.0 mi East 16.1 mph - N/A   Clear
4:53 AM 52.0 °F 28.9 °F 41% 29.83 in 10.0 mi ESE 11.5 mph - N/A   Clear
5:53 AM 53.1 °F 28.9 °F 40% 29.81 in 10.0 mi ESE 16.1 mph - N/A   Clear
6:53 AM 53.1 °F 28.9 °F 40% 29.79 in 10.0 mi ESE 15.0 mph - N/A   Clear
7:53 AM 53.1 °F 30.0 °F 41% 29.81 in 10.0 mi ESE 16.1 mph - N/A   Clear
8:53 AM 55.9 °F 30.0 °F 37% 29.80 in 10.0 mi East 17.3 mph - N/A   Clear
9:53 AM 60.1 °F 32.0 °F 35% 29.76 in 10.0 mi ESE 16.1 mph - N/A   Clear
10:53 AM 66.9 °F 30.0 °F 25% 29.71 in 10.0 mi SE 15.0 mph - N/A   Clear
11:53 AM 72.0 °F 27.0 °F 19% 29.65 in 10.0 mi SSE 25.3 mph 32.2 mph N/A   Clear
12:53 PM 73.0 °F 26.1 °F 17% 29.62 in 10.0 mi SSW 11.5 mph 25.3 mph N/A   Clear
1:53 PM 73.0 °F 24.1 °F 16% 29.60 in 10.0 mi WSW 16.1 mph 36.8 mph N/A   Clear
2:53 PM 75.9 °F 23.0 °F 14% 29.56 in 10.0 mi SW 20.7 mph 35.7 mph N/A   Clear
3:53 PM 75.0 °F 26.1 °F 16% 29.54 in 10.0 mi South 17.3 mph 28.8 mph N/A   Clear
4:53 PM 75.0 °F 25.0 °F 16% 29.49 in 10.0 mi SSW 18.4 mph 32.2 mph N/A   Clear
5:53 PM 72.0 °F 24.1 °F 17% 29.47 in 10.0 mi SSW 9.2 mph 23.0 mph N/A   Clear
6:53 PM 72.0 °F 26.1 °F 18% 29.42 in 10.0 mi South 10.4 mph - N/A   Clear
7:53 PM 69.1 °F 26.1 °F 20% 29.40 in 10.0 mi South 9.2 mph - N/A   Clear
8:53 PM 66.0 °F 19.9 °F 17% 29.39 in 10.0 mi SW 9.2 mph - N/A   Clear
9:53 PM 66.9 °F 16.0 °F 14% 29.39 in 10.0 mi SW 10.4 mph 21.9 mph N/A   Clear
10:53 PM 66.9 °F 12.9 °F 12% 29.38 in 10.0 mi SW 21.9 mph 36.8 mph N/A   Clear
11:53 PM 64.9 °F 10.0 °F 12% 29.37 in 10.0 mi West 16.1 mph 32.2 mph N/A   Clear